GW2591 Weather Reports


Display with metric or nautical units.
time (UTC)temp
F
wind
direction
speed
MPH
gust
MPH
rain 1hr
in
rain 24hr
in
rain mn
in
humidity
%
barometer
mb
20260502221458 46 310 4.0 12.0 0.00 0.00 0.00 47 1016.4
20260502220956 46 327 7.0 11.0 0.00 0.00 0.00 44 1016.4
20260502220451 46 302 4.0 9.0 0.00 0.00 0.00 42 1016.4
20260502215948 46 275 6.0 11.0 0.00 0.00 0.00 44 1016.4
20260502215445 46 298 6.0 12.0 0.00 0.00 0.00 43 1016.3
20260502214942 46 306 5.0 15.0 0.00 0.00 0.00 44 1016.3
20260502214439 46 332 8.0 16.0 0.00 0.00 0.00 42 1016.2
20260502213936 46 299 5.0 13.0 0.00 0.00 0.00 45 1016.2
20260502213433 46 301 3.0 9.0 0.00 0.00 0.00 45 1016.3
20260502212932 46 322 7.0 13.0 0.00 0.00 0.00 42 1016.1
20260502212430 46 324 6.0 10.0 0.00 0.00 0.00 47 1016.3
20260502211927 46 354 5.0 15.0 0.00 0.00 0.00 45 1016.2
20260502211423 46 335 10.0 12.0 0.00 0.00 0.00 43 1016.1
20260502210920 46 317 7.0 12.0 0.00 0.00 0.00 46 1016.1
20260502210417 46 328 7.0 11.0 0.00 0.00 0.00 44 1016.2
20260502205914 46 295 3.0 9.0 0.00 0.00 0.00 46 1016.1
20260502205410 45 352 3.0 13.0 0.00 0.00 0.00 42 1016.1
20260502204908 46 330 9.0 16.0 0.00 0.00 0.00 43 1016.3
20260502204404 45 302 5.0 17.0 0.00 0.00 0.00 45 1016.2
20260502203902 46 331 11.0 17.0 0.00 0.00 0.00 48 1016.2
20260502203359 46 273 5.0 12.0 0.00 0.00 0.00 43 1016.3
20260502202855 46 321 8.0 16.0 0.00 0.00 0.00 48 1016.3
20260502202352 46 291 7.0 14.0 0.00 0.00 0.00 45 1016.3
20260502201850 46 324 14.0 20.0 0.00 0.00 0.00 44 1016.3
20260502201346 46 290 3.0 11.0 0.00 0.00 0.00 45 1016.4
20260502200843 46 300 5.0 16.0 0.00 0.00 0.00 49 1016.4
20260502200338 46 314 4.0 10.0 0.00 0.00 0.00 49 1016.5
20260502195837 46 295 8.0 15.0 0.00 0.00 0.00 44 1016.6
20260502195333 46 319 7.0 15.0 0.00 0.00 0.00 46 1016.6
20260502194830 46 308 6.0 11.0 0.00 0.00 0.00 49 1016.7
20260502194327 46 333 9.0 10.0 0.00 0.00 0.00 47 1016.6
20260502193822 46 295 9.0 14.0 0.00 0.00 0.00 43 1016.6
20260502193320 46 326 13.0 14.0 0.00 0.00 0.00 50 1016.7
20260502192815 45 322 17.0 19.0 0.00 0.00 0.00 43 1016.8
20260502192312 46 290 6.0 15.0 0.00 0.00 0.00 47 1016.8
20260502191810 46 316 4.0 19.0 0.00 0.00 0.00 43 1016.7
20260502191307 46 323 11.0 17.0 0.00 0.00 0.00 48 1016.7
20260502190805 46 309 9.0 15.0 0.00 0.00 0.00 46 1016.7
20260502190302 47 320 12.0 15.0 0.00 0.00 0.00 41 1016.9
20260502185757 46 17 1.0 8.0 0.00 0.00 0.00 44 1016.8
20260502185253 45 339 6.0 12.0 0.00 0.00 0.00 43 1017.0
20260502184749 46 284 6.0 15.0 0.00 0.00 0.00 45 1016.8
20260502184245 45 312 2.0 8.0 0.00 0.00 0.00 42 1017.0
20260502183742 45 327 12.0 19.0 0.00 0.00 0.00 43 1017.1
20260502183238 45 323 9.0 10.0 0.00 0.00 0.00 50 1017.3
20260502182733 44 306 5.0 10.0 0.00 0.00 0.00 46 1017.1
20260502182229 44 347 6.0 12.0 0.00 0.00 0.00 44 1017.0
20260502181726 44 349 6.0 16.0 0.00 0.00 0.00 46 1017.1
20260502181226 44 338 13.0 15.0 0.00 0.00 0.00 48 1017.3
20260502180722 44 321 8.0 14.0 0.00 0.00 0.00 48 1017.2
20260502180219 44 318 6.0 17.0 0.00 0.00 0.00 50 1017.3
20260502170138 44 330 8.0 15.0 0.00 0.00 0.00 51 1017.4
20260502164125 43 299 8.0 15.0 0.00 0.00 0.00 49 1017.7
20260502163621 43 340 4.0 17.0 0.00 0.00 0.00 52 1017.7
20260502163117 43 326 8.0 15.0 0.00 0.00 0.00 55 1017.8
20260502162614 43 327 12.0 13.0 0.00 0.00 0.00 54 1017.6
20260502162112 43 287 6.0 10.0 0.00 0.00 0.00 52 1017.7
20260502161608 43 324 6.0 16.0 0.00 0.00 0.00 52 1017.8
20260502161106 43 329 8.0 15.0 0.00 0.00 0.00 54 1018.0
20260502160604 43 6 7.0 16.0 0.00 0.00 0.00 52 1017.7
20260502152016 43 308 8.0 14.0 0.00 0.00 0.00 53 1017.6
20260502151513 44 319 12.0 15.0 0.00 0.00 0.00 54 1017.6
20260502151011 42 289 8.0 11.0 0.00 0.00 0.00 55 1017.6
20260502150508 42 290 4.0 20.0 0.00 0.00 0.00 59 1017.7
20260502130353 40 351 5.0 9.0 0.00 0.00 0.00 74 1017.1
20260502123336 37 317 5.0 12.0 0.00 0.00 0.00 76 1016.9
20260502122833 37 325 11.0 12.0 0.00 0.00 0.00 75 1016.9
20260502122328 37 339 11.0 13.0 0.00 0.00 0.00 76 1016.9
20260502121827 37 343 7.0 12.0 0.00 0.00 0.00 76 1017.0
20260502121324 37 337 6.0 13.0 0.00 0.00 0.00 75 1016.9
20260502120821 37 327 7.0 14.0 0.00 0.00 0.00 75 1016.9
20260502120317 37 312 11.0 13.0 0.00 0.00 0.00 75 1016.9
20260502115815 37 315 6.0 9.0 0.00 0.00 0.00 76 1017.0
20260502115312 37 323 8.0 12.0 0.00 0.00 0.00 76 1016.8
20260502114808 37 336 4.0 9.0 0.00 0.00 0.00 76 1017.0
20260502114305 36 321 3.0 9.0 0.00 0.00 0.00 77 1016.8
20260502113802 36 321 5.0 8.0 0.00 0.00 0.00 77 1016.9
20260502113300 36 312 4.0 9.0 0.00 0.00 0.00 78 1016.7
20260502112758 35 323 3.0 7.0 0.00 0.00 0.00 78 1016.6
20260502112255 35 298 2.0 6.0 0.00 0.00 0.00 79 1016.7
20260502111752 34 313 2.0 5.0 0.00 0.00 0.00 80 1016.7
20260502111250 34 319 0.0 3.0 0.00 0.00 0.00 80 1016.6
20260502110747 34 331 2.0 6.0 0.00 0.00 0.00 80 1016.6
20260502110244 34 313 2.0 9.0 0.00 0.00 0.00 80 1016.7
20260502105743 34 325 3.0 6.0 0.00 0.00 0.00 80 1016.4
20260502105238 34 330 5.0 9.0 0.00 0.00 0.00 79 1016.3
20260502104737 34 329 4.0 9.0 0.00 0.00 0.00 79 1016.2
20260502104234 34 330 6.0 9.0 0.00 0.00 0.00 79 1016.3
20260502103731 34 322 8.0 9.0 0.00 0.00 0.00 79 1016.3
20260502103229 34 332 9.0 11.0 0.00 0.00 0.00 78 1016.2
20260502102725 34 303 5.0 12.0 0.00 0.00 0.00 77 1016.2
20260502102222 34 333 6.0 12.0 0.00 0.00 0.00 77 1016.3
20260502101720 34 304 5.0 10.0 0.00 0.00 0.00 77 1016.2
20260502101218 34 324 7.0 11.0 0.00 0.00 0.00 76 1016.4
20260502100716 34 323 6.0 11.0 0.00 0.00 0.00 77 1016.3
20260502100214 34 317 7.0 9.0 0.00 0.00 0.00 78 1016.3
20260502091148 35 294 5.0 10.0 0.00 0.00 0.00 76 1015.9
20260502090645 35 271 13.0 13.0 0.00 0.00 0.00 75 1015.9
20260502090142 35 267 8.0 11.0 0.00 0.00 0.00 75 1016.0
20260502080105 36 298 5.0 12.0 0.00 0.00 0.00 74 1015.7
20260502071038 37 297 6.0 11.0 0.00 0.00 0.00 74 1015.7
20260502070536 37 265 6.0 11.0 0.00 0.00 0.00 74 1015.8
20260502070033 37 307 4.0 9.0 0.00 0.00 0.00 75 1015.7
20260502065532 37 267 4.0 11.0 0.00 0.00 0.00 75 1015.8
20260502065029 37 300 4.0 10.0 0.00 0.00 0.00 76 1015.7
20260502064527 37 284 4.0 8.0 0.00 0.00 0.00 76 1015.9
20260502064024 37 271 5.0 9.0 0.00 0.00 0.00 75 1015.9
20260502063522 37 289 7.0 9.0 0.00 0.00 0.00 75 1015.9
20260502063019 37 315 4.0 9.0 0.00 0.00 0.00 74 1015.7
20260502062516 37 280 3.0 9.0 0.00 0.00 0.00 74 1015.8
20260502062015 37 290 3.0 9.0 0.00 0.00 0.00 74 1016.0
20260502061512 37 305 2.0 9.0 0.00 0.00 0.00 75 1015.9
20260502061009 37 295 4.0 10.0 0.00 0.00 0.00 74 1015.9
20260502060504 37 291 5.0 8.0 0.00 0.00 0.00 74 1016.1
20260502060001 37 284 4.0 9.0 0.00 0.00 0.00 74 1015.8
20260502055458 38 329 3.0 9.0 0.00 0.00 0.00 75 1015.9
20260502054952 38 278 8.0 11.0 0.00 0.00 0.00 74 1015.9
20260502054449 38 274 3.0 7.0 0.00 0.00 0.00 74 1015.8
20260502053947 38 280 4.0 9.0 0.00 0.00 0.00 74 1015.8
20260502053443 38 284 4.0 9.0 0.00 0.00 0.00 74 1016.0
20260502052941 38 284 5.0 9.0 0.00 0.00 0.00 74 1015.9
20260502052439 38 309 4.0 8.0 0.00 0.00 0.00 74 1015.8
20260502051938 39 304 4.0 8.0 0.00 0.00 0.00 74 1015.8
20260502051435 39 301 5.0 10.0 0.00 0.00 0.00 74 1016.1
20260502050932 39 285 3.0 8.0 0.00 0.00 0.00 74 1015.9
20260502050429 39 325 5.0 9.0 0.00 0.00 0.00 74 1015.8
20260502045926 39 291 3.0 10.0 0.00 0.00 0.00 74 1016.0
20260502045422 39 269 4.0 10.0 0.00 0.00 0.00 74 1016.1
20260502044920 39 276 5.0 9.0 0.00 0.00 0.00 77 1016.2
20260502044415 39 263 5.0 9.0 0.00 0.00 0.00 78 1016.4
20260502043912 39 257 8.0 9.0 0.00 0.00 0.00 78 1016.2
20260502043410 39 259 7.0 8.0 0.00 0.00 0.00 79 1016.2
20260502042909 39 238 4.0 7.0 0.00 0.00 0.00 81 1016.2
20260502042407 40 248 5.0 7.0 0.00 0.00 0.00 81 1016.3
20260502041904 40 251 6.0 7.0 0.00 0.00 0.00 81 1016.2
20260502041401 40 238 4.0 7.0 0.00 0.00 0.00 82 1016.2
20260502040858 40 204 2.0 3.0 0.00 0.00 0.00 82 1016.2
20260502040355 40 168 1.0 3.0 0.00 0.00 0.00 82 1016.3
20260502035851 40 204 2.0 2.0 0.00 0.35 0.35 81 1016.2
20260502035348 41 153 1.0 3.0 0.00 0.35 0.35 81 1016.3
20260502034845 41 199 2.0 4.0 0.00 0.35 0.35 81 1016.1
20260502034344 41 236 2.0 3.0 0.00 0.35 0.35 81 1016.1
20260502033842 41 176 2.0 4.0 0.00 0.35 0.35 82 1016.0
20260502033339 41 169 2.0 3.0 0.00 0.35 0.35 83 1015.9
20260502032836 42 187 2.0 3.0 0.00 0.35 0.35 81 1016.1
20260502032331 42 221 2.0 4.0 0.00 0.35 0.35 81 1015.9
20260502031829 42 249 2.0 4.0 0.00 0.35 0.35 82 1015.8
20260502031328 42 199 1.0 4.0 0.00 0.35 0.35 82 1015.9
20260502030826 42 233 1.0 3.0 0.00 0.35 0.35 81 1015.7
20260502030324 42 183 1.0 3.0 0.00 0.35 0.35 81 1015.9
20260502025820 42 232 2.0 4.0 0.00 0.35 0.35 80 1016.0
20260502025319 42 211 3.0 4.0 0.00 0.35 0.35 82 1015.8
20260502024816 42 205 3.0 5.0 0.00 0.35 0.35 82 1015.8
20260502024314 42 241 0.0 4.0 0.00 0.35 0.35 81 1015.9
20260502023811 42 198 2.0 4.0 0.00 0.35 0.35 81 1015.7
20260502023309 42 172 1.0 2.0 0.00 0.35 0.35 81 1015.7
20260502022806 42 238 0.0 3.0 0.00 0.35 0.35 79 1015.7
20260502022306 42 256 0.0 1.0 0.00 0.35 0.35 80 1015.6
20260502021759 42 62 0.0 2.0 0.00 0.35 0.35 81 1015.7
20260502021256 42 294 0.0 3.0 0.00 0.35 0.35 80 1015.7
20260502020754 42 0 0.0 2.0 0.00 0.35 0.35 80 1015.6
20260502020251 42 255 2.0 4.0 0.00 0.35 0.35 79 1015.4
20260502015749 42 149 0.0 2.0 0.00 0.35 0.35 79 1015.5
20260502015245 42 249 2.0 3.0 0.00 0.35 0.35 77 1015.3
20260502014743 42 241 2.0 3.0 0.00 0.35 0.35 77 1015.2
20260502014239 42 42 0.0 3.0 0.02 0.35 0.35 78 1015.1
20260502013735 42 335 2.0 4.0 0.02 0.35 0.35 76 1015.1
20260502013231 43 356 3.0 6.0 0.00 0.34 0.34 73 1014.8
20260502012728 43 4 3.0 9.0 0.00 0.34 0.34 73 1015.0
20260502012226 44 340 6.0 11.0 0.00 0.34 0.34 69 1014.7
20260502011723 43 0 6.0 7.0 0.02 0.34 0.34 69 1014.6
20260502011219 43 350 5.0 18.0 0.05 0.34 0.34 69 1014.9
20260502010717 43 319 14.0 22.0 0.02 0.34 0.34 73 1014.9
20260502010213 43 283 5.0 14.0 0.00 0.34 0.34 74 1015.0
20260502005710 43 309 3.0 15.0 0.00 0.34 0.34 73 1014.9
20260502005208 43 335 13.0 19.0 0.00 0.34 0.34 73 1014.9
20260502004703 43 340 12.0 24.0 0.00 0.34 0.34 73 1014.8
20260502004200 43 330 25.0 25.0 0.00 0.34 0.34 72 1015.0
20260502003658 44 297 7.0 25.0 0.00 0.34 0.34 72 1014.8
20260502003155 45 318 11.0 25.0 0.00 0.34 0.34 71 1014.8
20260502002650 45 302 4.0 9.0 0.00 0.34 0.34 72 1014.6
20260502002149 45 290 2.0 7.0 0.00 0.34 0.34 73 1014.5
20260502001646 45 339 3.0 5.0 0.00 0.34 0.34 73 1014.6
20260502001143 44 269 0.0 3.0 0.00 0.34 0.34 74 1014.6
20260502000641 44 69 1.0 4.0 0.00 0.34 0.34 75 1014.5
20260502000139 44 120 3.0 5.0 0.00 0.34 0.34 75 1014.6
20260501235634 45 111 3.0 4.0 0.00 0.34 0.34 73 1014.3
20260501235131 45 58 1.0 2.0 0.00 0.34 0.34 72 1014.4
20260501234626 45 26 2.0 4.0 0.00 0.34 0.34 72 1014.4
20260501234123 45 327 0.0 3.0 0.00 0.34 0.34 72 1014.2
20260501233622 45 236 1.0 2.0 0.00 0.34 0.34 72 1014.2
20260501233119 45 339 1.0 4.0 0.00 0.34 0.34 70 1014.2
20260501232614 45 69 0.0 4.0 0.00 0.34 0.34 71 1014.3
20260501232112 45 353 3.0 7.0 0.00 0.34 0.34 71 1014.2
20260501231609 45 6 4.0 17.0 0.00 0.34 0.34 72 1014.3
20260501231108 47 313 3.0 6.0 0.00 0.34 0.34 69 1014.2
20260501230606 47 286 1.0 5.0 0.00 0.34 0.34 69 1014.4
20260501230104 47 245 4.0 8.0 0.00 0.34 0.34 68 1014.3
20260501225601 47 251 4.0 7.0 0.00 0.34 0.34 70 1014.2
20260501225057 47 237 5.0 8.0 0.00 0.34 0.34 68 1014.1
20260501224555 47 227 1.0 6.0 0.00 0.34 0.34 68 1014.3
20260501224051 47 282 3.0 5.0 0.00 0.34 0.34 68 1014.3
20260501223548 47 348 3.0 3.0 0.00 0.34 0.34 66 1014.2
20260501223044 47 247 3.0 5.0 0.00 0.34 0.34 66 1014.1
20260501222541 47 233 1.0 5.0 0.00 0.34 0.34 65 1014.2
20260501222038 46 212 0.0 2.0 0.00 0.34 0.34 66 1014.1